TimeMST,TemperatureF,Dew PointF,Humidity,Sea Level PressureIn,VisibilityMPH,Wind Direction,Wind SpeedMPH,Gust SpeedMPH,PrecipitationIn,Events,Conditions,WindDirDegrees,DateUTC
12:15 AM,1.4,-0.4,92,29.83,10.0,Calm,Calm,-,N/A,,Clear,0,2012-12-26 07:15:00
12:36 AM,1.4,-0.4,92,29.82,10.0,Calm,Calm,-,N/A,,Clear,0,2012-12-26 07:36:00
12:55 AM,3.2,1.4,92,29.82,10.0,South,4.6,-,N/A,,Mostly Cloudy,180,2012-12-26 07:55:00
1:15 AM,3.2,1.4,92,29.81,10.0,South,5.8,-,N/A,,Mostly Cloudy,170,2012-12-26 08:15:00
1:35 AM,3.2,3.2,100,29.81,10.0,SSE,5.8,-,N/A,,Partly Cloudy,160,2012-12-26 08:35:00
1:55 AM,8.6,8.6,100,29.80,10.0,South,4.6,-,N/A,,Mostly Cloudy,170,2012-12-26 08:55:00
2:15 AM,6.8,1.4,79,29.80,10.0,SSW,3.5,-,N/A,,Scattered Clouds,200,2012-12-26 09:15:00
2:35 AM,6.8,3.2,85,29.79,10.0,South,3.5,-,N/A,,Clear,180,2012-12-26 09:35:00
2:55 AM,6.8,5.0,92,29.78,10.0,Calm,Calm,-,N/A,,Clear,0,2012-12-26 09:55:00
3:15 AM,8.6,6.8,92,29.77,10.0,Calm,Calm,-,N/A,,Clear,0,2012-12-26 10:15:00
3:35 AM,8.6,5.0,85,29.76,10.0,SSE,3.5,-,N/A,,Clear,150,2012-12-26 10:35:00
4:15 AM,8.6,6.8,92,29.74,10.0,South,5.8,-,N/A,,Scattered Clouds,170,2012-12-26 11:15:00
4:35 AM,10.4,8.6,92,29.73,10.0,Calm,Calm,-,N/A,,Overcast,0,2012-12-26 11:35:00
4:55 AM,8.6,5.0,85,29.72,10.0,Calm,Calm,-,N/A,,Overcast,0,2012-12-26 11:55:00
5:15 AM,8.6,6.8,92,29.72,10.0,Calm,Calm,-,N/A,,Overcast,0,2012-12-26 12:15:00
5:35 AM,10.4,8.6,92,29.71,10.0,Calm,Calm,-,N/A,,Overcast,0,2012-12-26 12:35:00
5:55 AM,10.4,8.6,92,29.71,10.0,Calm,Calm,-,N/A,,Overcast,0,2012-12-26 12:55:00
6:15 AM,10.4,8.6,92,29.70,10.0,Calm,Calm,-,N/A,,Overcast,0,2012-12-26 13:15:00
6:35 AM,12.2,8.6,85,29.69,10.0,SSE,3.5,-,N/A,,Overcast,160,2012-12-26 13:35:00
6:55 AM,12.2,8.6,85,29.69,10.0,Calm,Calm,-,N/A,,Overcast,0,2012-12-26 13:55:00
7:15 AM,12.2,10.4,92,29.69,10.0,Calm,Calm,-,N/A,,Overcast,0,2012-12-26 14:15:00
7:35 AM,12.2,10.4,92,29.68,10.0,Calm,Calm,-,N/A,,Overcast,0,2012-12-26 14:35:00
7:55 AM,12.2,10.4,92,29.68,10.0,Calm,Calm,-,N/A,,Overcast,0,2012-12-26 14:55:00
8:15 AM,8.6,6.8,92,29.68,10.0,Calm,Calm,-,N/A,,Mostly Cloudy,0,2012-12-26 15:15:00
8:35 AM,10.4,8.6,92,29.68,10.0,Calm,Calm,-,N/A,,Overcast,0,2012-12-26 15:35:00
8:55 AM,8.6,6.8,92,29.68,10.0,NE,3.5,-,N/A,,Overcast,40,2012-12-26 15:55:00
9:35 AM,8.6,8.6,100,29.69,10.0,NNE,4.6,-,N/A,,Overcast,20,2012-12-26 16:35:00
10:15 AM,10.4,8.6,92,29.70,10.0,NNE,3.5,-,N/A,,Overcast,20,2012-12-26 17:15:00
10:35 AM,10.4,8.6,92,29.70,10.0,Calm,Calm,-,N/A,,Overcast,0,2012-12-26 17:35:00
10:55 AM,10.4,8.6,92,29.69,10.0,NE,3.5,-,N/A,,Overcast,40,2012-12-26 17:55:00
11:15 AM,12.2,8.6,85,29.68,10.0,NE,4.6,-,N/A,,Overcast,50,2012-12-26 18:15:00
11:35 AM,14.0,10.4,86,29.67,10.0,NNE,3.5,-,N/A,,Overcast,30,2012-12-26 18:35:00
11:55 AM,14.0,10.4,86,29.67,10.0,Calm,Calm,-,N/A,,Overcast,0,2012-12-26 18:55:00
12:15 PM,15.8,10.4,79,29.66,10.0,Calm,Calm,-,N/A,,Overcast,0,2012-12-26 19:15:00
12:35 PM,15.8,12.2,86,29.65,10.0,Calm,Calm,-,N/A,,Overcast,0,2012-12-26 19:35:00
12:55 PM,15.8,10.4,79,29.64,10.0,Calm,Calm,-,N/A,,Overcast,0,2012-12-26 19:55:00
1:15 PM,15.8,12.2,86,29.63,10.0,Calm,Calm,-,N/A,,Overcast,0,2012-12-26 20:15:00
1:35 PM,17.6,12.2,79,29.63,10.0,Calm,Calm,-,N/A,,Overcast,0,2012-12-26 20:35:00
1:55 PM,17.6,12.2,79,29.62,10.0,Calm,Calm,-,N/A,,Overcast,0,2012-12-26 20:55:00
2:15 PM,17.6,12.2,79,29.62,10.0,NNE,3.5,-,N/A,,Overcast,30,2012-12-26 21:15:00
2:35 PM,17.6,14.0,86,29.62,10.0,Calm,Calm,-,N/A,,Overcast,0,2012-12-26 21:35:00
2:55 PM,17.6,12.2,79,29.62,10.0,Calm,Calm,-,N/A,,Overcast,0,2012-12-26 21:55:00
3:15 PM,17.6,12.2,79,29.62,7.0,Calm,Calm,-,N/A,,Overcast,0,2012-12-26 22:15:00
3:35 PM,17.6,14.0,86,29.62,4.0,Calm,Calm,-,N/A,,Overcast,0,2012-12-26 22:35:00
3:55 PM,17.6,15.8,93,29.62,5.0,Calm,Calm,-,N/A,,Overcast,0,2012-12-26 22:55:00
4:15 PM,17.6,14.0,86,29.63,5.0,NE,4.6,-,N/A,,Overcast,50,2012-12-26 23:15:00
4:35 PM,17.6,15.8,93,29.63,9.0,NE,3.5,-,N/A,,Overcast,50,2012-12-26 23:35:00
5:15 PM,15.8,12.2,86,29.63,10.0,NE,4.6,-,N/A,,Overcast,50,2012-12-27 00:15:00
5:35 PM,15.8,12.2,86,29.63,10.0,Calm,Calm,-,N/A,,Overcast,0,2012-12-27 00:35:00
5:55 PM,15.8,12.2,86,29.64,10.0,Calm,Calm,-,N/A,,Overcast,0,2012-12-27 00:55:00
6:15 PM,15.8,12.2,86,29.64,5.0,Calm,Calm,-,N/A,,Overcast,0,2012-12-27 01:15:00
6:35 PM,15.8,12.2,86,29.65,3.0,Calm,Calm,-,N/A,,Overcast,0,2012-12-27 01:35:00
7:15 PM,15.8,14.0,93,29.65,2.0,Calm,Calm,-,N/A,,Overcast,0,2012-12-27 02:15:00
7:35 PM,15.8,14.0,93,29.65,2.5,Calm,Calm,-,N/A,,Overcast,0,2012-12-27 02:35:00
8:15 PM,15.8,15.8,100,29.65,4.0,Calm,Calm,-,N/A,,Overcast,0,2012-12-27 03:15:00
8:35 PM,15.8,15.8,100,29.65,3.0,Calm,Calm,-,N/A,,Overcast,0,2012-12-27 03:35:00
8:55 PM,15.8,15.8,100,29.65,3.0,SSE,3.5,-,N/A,,Overcast,160,2012-12-27 03:55:00
9:15 PM,15.8,14.0,93,29.65,3.0,Calm,Calm,-,N/A,,Overcast,0,2012-12-27 04:15:00
9:55 PM,15.8,14.0,93,29.66,5.0,Calm,Calm,-,N/A,,Overcast,0,2012-12-27 04:55:00
10:15 PM,14.0,14.0,100,29.66,5.0,Calm,Calm,-,N/A,,Overcast,0,2012-12-27 05:15:00
10:35 PM,14.0,14.0,100,29.67,6.0,Calm,Calm,-,N/A,,Overcast,0,2012-12-27 05:35:00
10:55 PM,14.0,12.2,93,29.67,5.0,Calm,Calm,-,N/A,,Mostly Cloudy,0,2012-12-27 05:55:00
11:15 PM,15.8,12.2,86,29.68,6.0,Calm,Calm,-,N/A,,Overcast,0,2012-12-27 06:15:00
11:35 PM,15.8,14.0,93,29.68,9.0,Calm,Calm,-,N/A,,Overcast,0,2012-12-27 06:35:00
11:55 PM,15.8,14.0,93,29.68,8.0,Calm,Calm,-,N/A,,Mostly Cloudy,0,2012-12-27 06:55:00